Regional Weather Roundup
Issued by NWS

Home | Current Version | Previous Version | Text Only | Print | Product List | Glossary On
Versions: 1 2 3 4 5 6 7 8 9 10 11 12 13 14 15 16 17 18 19 20 21 22 23 24 25 26 27 28 29 30 31 32 33 34 35 36 37 38 39 40 41 42 43 44 45 46 47 48 49 50
000
ASUS43 KMPX 192201
RWRMN
WEATHER ROUNDUP FOR MINNESOTA
NATIONAL WEATHER SERVICE TWIN CITIES/CHANHASSEN MN
400 PM CST FRI DEC 19 2014


NOTE: "FAIR" INDICATES FEW OR NO CLOUDS BELOW 12,000 FEET WITH NO
SIGNIFICANT WEATHER AND/OR OBSTRUCTIONS TO VISIBILITY. N/A MEANS
CURRENT SKY AND/OR WEATHER CONDITIONS ARE NOT AVAILABLE.

MNZ060>063-068>070-192300-
   Twin Cities Metro

CITY           SKY/WX    TMP DP  RH WIND       PRES   REMARKS
TWIN CITIES    CLOUDY    28  23  81 SE8       30.19S WCI  20
ST PAUL        CLOUDY    28  23  81 SE10      30.21S WCI  19
CRYSTAL        CLOUDY    29  24  82 SE9       30.17S HAZE    WCI  20
BLAINE         CLOUDY    28  27  93 SE9       30.18S FOG     WCI  20
LAKEVILLE      PTCLDY    28  25  86 SE8       30.18S FOG     WCI  20
EDEN PRAIRIE   CLOUDY    30  24  78 SE9       30.17S HAZE    WCI  22
SOUTH ST PAUL  CLOUDY    29  24  81 SE7       30.20R WCI  22
LAKE ELMO      CLOUDY    28  25  86 SE6       30.21S WCI  22
$$
MNZ001>005-007-008-013>017-022>024-027-028-192300-
   Northwest Minnesota

CITY           SKY/WX    TMP DP  RH WIND       PRES   REMARKS
BEMIDJI        LGT SNOW  23  22  96 SE8       30.06R WCI  14
HALLOCK        FOG       28  27  93 S10       30.02S VSB 3/4 WCI  19
ROSEAU         CLOUDY    27  21  80 SE7       30.05R HAZE    WCI  19
WARROAD        CLOUDY    25  19  80 SE10      30.06S FOG     WCI  15
THIEF RVR FALL CLOUDY    27  25  93 SE9       30.04R WCI  17
CROOKSTON      CLOUDY    28  27  93 S10       30.04S FOG     WCI  19
FOSSTON        CLOUDY    25  23  93 SE8       30.04S FOG     WCI  16
DETROIT LAKES  CLOUDY    28  28 100 S14       30.04S FOG     WCI  17
MOORHEAD       LGT RAIN  30  30 100 S13       30.04S WCI  20
PARK RAPIDS    FOG       25  23  92 SE14      30.06S VSB 1/2 WCI  13
MAHNOMEN       CLOUDY    26  25  96 S12       30.03S FOG     WCI  16
$$
MNZ006-009>011-018-025>026-192300-
   North Central Minnesota

CITY           SKY/WX    TMP DP  RH WIND       PRES   REMARKS
BAUDETTE       CLOUDY    24  20  84 SE7       30.07S WCI  16
FLAG ISLAND    CLOUDY    23  21  93 S14       30.06S FOG     WCI  11
INTL FALLS     CLOUDY    24  19  81 SE6       30.11S WCI  17
WASKISH        CLOUDY    25  21  86 CALM      30.08S FOG
BIG FORK       CLOUDY    25  21  86 SE7       30.10F FOG     WCI  17
LONGVILLE      CLOUDY    23  21  93 SE7       30.10S FOG     WCI  15
GRAND RAPIDS   CLOUDY    23  19  86 SE9       30.11S WCI  13
CRANE LAKE     CLOUDY    23  19  86 CALM      30.17S
ORR            CLOUDY    23  18  80 CALM      30.11S
COOK           CLOUDY    23  19  86 SE5       30.14S WCI  17
WALKER         CLOUDY    23  22  96 SE5       30.08R FOG     WCI  16
$$
MNZ012-019>021-037-192300-
   Northeast Minnesota

CITY           SKY/WX    TMP DP  RH WIND       PRES   REMARKS
DULUTH         CLOUDY    24  20  84 SE8       30.15S WCI  15
ELY            CLOUDY    23  19  86 SE7       30.15R WCI  15
HIBBING        CLOUDY    25  19  78 S6        30.14R WCI  18
EVELETH        CLOUDY    25  21  86 SE6       30.15S WCI  18
DULUTH HARBOR  CLOUDY    28  23  80 CALM      30.21S
TWO HARBORS    CLOUDY    28  23  80 S3        30.17S
SILVER BAY     CLOUDY    27  23  86 CALM      30.18R
GRAND MARAIS     N/A     29  22  75 SE8       30.23S WCI  21
G MARAIS ARPRT CLOUDY    21  18  86 SE6       30.16S WCI  14
$$
MNZ029>031-032-039>041-046>048-054>057-064-192300-
   West Central Minnesota

CITY           SKY/WX    TMP DP  RH WIND       PRES   REMARKS
FERGUS FALLS   CLOUDY    28  28 100 S12       30.09R FOG     WCI  18
WHEATON        CLOUDY    28  27  93 S9        30.07R WCI  20
MORRIS         CLOUDY    30  28  93 S12       30.06S FOG     WCI  21
ALEXANDRIA     CLOUDY    29  27  92 S15       30.07S FOG     WCI  18
ELBOW LAKE     CLOUDY    29  28  96 S13       30.06S FOG     WCI  19
WADENA         FOG       25  25 100 S5        30.07S VSB 1/2 WCI  19
GLENWOOD       CLOUDY    28  28 100 S12G17    30.08S FOG     WCI  18
APPLETON       CLOUDY    32  28  86 S5        30.08S FOG     WCI  27
BENSON         CLOUDY    30  28  93 SW14      30.09S FOG     WCI  20
ORTONVILLE     CLOUDY    30  27  86 S10       30.06R WCI  21
MADISON        MOCLDY    36  34  93 S5        30.08R FOG
WILLMAR        CLOUDY    32  28  86 S5        30.12S FOG     WCI  27
$$
MNZ033>034-036-042>043-049>051-058-059-192300-
   Central Minnesota

CITY           SKY/WX    TMP DP  RH WIND       PRES   REMARKS
ST CLOUD       CLOUDY    29  24  82 SE13      30.14R HAZE    WCI  19
SAUK CENTRE    CLOUDY    28  28  99 SE8       30.10S FOG     WCI  20
PAYNESVILLE    CLOUDY    28  27  97 E7        30.11S FOG     WCI  20
AITKIN         CLOUDY    27  21  80 SE5       30.12S HAZE    WCI  21
PINE RIVER     FOG       23  23 100 SE8       30.13S VSB 1   WCI  14
BRAINERD       CLOUDY    24  23  96 SE8       30.12R FOG     WCI  15
STAPLES        FOG       23  23 100 SE7       30.09S VSB 1   WCI  15
LONG PRAIRIE   CLOUDY    27  27 100 SE7       30.09F FOG     WCI  19
LITTLE FALLS   CLOUDY    27  23  86 SE7       30.13R FOG     WCI  19
LITCHFIELD     CLOUDY    30  30 100 SE5       30.13R FOG     WCI  25
BUFFALO        CLOUDY    29  25  86 SE6       30.16S FOG     WCI  23
MAPLE LAKE     CLOUDY    30  28  91 SE8       30.16S FOG     WCI  22
$$
MNZ037-044-045-052-053-192300-
   East Central Minnesota

CITY           SKY/WX    TMP DP  RH WIND       PRES   REMARKS
PRINCETON      CLOUDY    28  25  86 CALM      30.16S FOG
MORA           CLOUDY    27  21  80 SE5       30.18S WCI  21
CAMBRIDGE      CLOUDY    28  19  69 SE7       30.16S WCI  21
RUSH CITY      CLOUDY    27  22  83 SE8       30.19R WCI  18
MOOSE LAKE     CLOUDY    27  21  80 S5        30.15S WCI  21
HINCKLEY       CLOUDY    28  23  80 CALM      30.18R
CLOQUET        CLOUDY    25  21  86 SE3       30.15S
MCGREGOR       CLOUDY    27  23  86 SE7       30.14S WCI  19
$$
MNZ071>073-080-081-089-090-097-098-192300-
   Southwest Minnesota

CITY           SKY/WX    TMP DP  RH WIND       PRES   REMARKS
MONTEVIDEO     CLOUDY    30  30 100 SW8       30.10S WCI  23
GRANITE FALLS  CLOUDY    31  28  88 S13       30.11S FOG     WCI  22
CANBY          CLOUDY    32  30  92 S13G18    30.08S FOG     WCI  22
MARSHALL       CLOUDY    30  27  86 S15       30.09R WCI  19
REDWOOD FALLS  CLOUDY    33  28  81 S14       30.12R WCI  23
OLIVIA         CLOUDY    34  32  93 S10       30.11S FOG     WCI  26
PIPESTONE      CLOUDY    28  28 100 SW5       30.06S FOG     WCI  23
WINDOM         CLOUDY    32  28  86 S9G18     30.12R WCI  24
WORTHINGTON    CLOUDY    30  27  86 S13       30.11R WCI  20
JACKSON        CLOUDY    32  28  86 S14       30.13R WCI  22
TRACY          CLOUDY    32  30  91 S13       30.08F WCI  22
SLAYTON        CLOUDY    30  29  98 S6        30.10R FOG     WCI  24
$$
MNZ065>067-074>077-082>085-091>093-192300-
   South Central Minnesota

CITY           SKY/WX    TMP DP  RH WIND       PRES   REMARKS
MANKATO        CLOUDY    30  25  80 S10       30.17R WCI  21
NEW ULM        CLOUDY    32  30  93 S10       30.15R FOG     WCI  24
ST JAMES       CLOUDY    34  30  86 SE9       30.16S FOG     WCI  26
FAIRMONT       CLOUDY    32  25  74 S13       30.15S WCI  22
GLENCOE        CLOUDY    32  30  92 S7        30.15S FOG     WCI  26
FARIBAULT      CLOUDY    30  27  86 S8        30.19R FOG     WCI  23
OWATONNA       PTCLDY    28  25  86 SE12      30.19R FOG     WCI  18
WASECA         CLOUDY    30  27  86 SE9       30.19S FOG     WCI  22
ALBERT LEA     CLOUDY    28  28 100 S9        30.18S FOG     WCI  20
$$
MNZ078>079-086>088-094>096-192300-
   Southeast Minnesota

CITY           SKY/WX    TMP DP  RH WIND       PRES   REMARKS
ROCHESTER      CLOUDY    28  22  78 S12       30.21R WCI  18
RED WING       CLOUDY    28  23  80 SE7       30.22S WCI  21
STANTON        CLOUDY    31  25  80 S9        30.18S WCI  23
DODGE CENTER   CLOUDY    28  27  93 S13       30.19S FOG     WCI  18
WINONA         CLOUDY    30  23  74 SE5       30.26R WCI  25
AUSTIN         CLOUDY    28  25  86 S8        30.20R FOG     WCI  20
PRESTON        CLOUDY    27  21  78 S9        30.22R WCI  18
$$
ABBREVIATIONS USED IN REMARKS
   TC - TEMPERATURES IN CELSIUS
  WCI - WIND CHILL INDEX
   HX - HEAT INDEX
  VSB - VISIBILITY
$$



USA.gov is the U.S. government's official web portal to all federal, state and local government web resources and services.